Regional Weather Roundup
Issued by NWS Jackson, KY

Home | Current Version | Previous Version | Graphics & Text | Print | Product List | Glossary On
Versions: 1 2 3 4 5 6 7 8 9 10 11 12 13 14 15 16 17 18 19 20 21 22 23 24 25 26 27 28 29 30 31 32 33 34 35 36 37 38 39 40 41 42 43 44 45 46 47 48 49 50
000
ASUS43 KJKL 221905
RWRJKL

EAST KENTUCKY HOURLY WEATHER ROUNDUP
NATIONAL WEATHER SERVICE JACKSON KY
300 PM EDT TUE JUL 22 2014

NOTE: "FAIR" INDICATES FEW OR NO CLOUDS BELOW 12,000 FEET WITH
NO SIGNIFICANT WEATHER AND/OR OBSTRUCTIONS TO VISIBILITY.

* THESE REPORTS ARE NOT UNDER NWS QUALITY CONTROL AND MAY NOT
  REPORT WEATHER SUCH AS PRECIPITATION AND FOG.

KYZ079-080-083-085-087-088-110-112-115-119-120-222000
...EASTERN KENTUCKY...

CITY           SKY/WX    TMP DP  RH WIND       PRES   REMARKS
JACKSON        SUNNY     86  68  54 S3        30.13F
LONDON         MOSUNNY   87  69  54 SE5       30.12F HX  91
SOMERSET*      MOSUNNY   88  68  51 CALM      30.11F HX  91
MONTICELLO*    SUNNY     91  73  55 CALM      30.12F HX  99
WILLIAMSBURG*  MOSUNNY   86  72  62 CALM      30.12F HX  92
MIDDLESBORO*   SUNNY     87  69  54 SW3       30.12F HX  91
HARLAN APT*    CLEAR     86  64  48 MISG      30.14F
BLACK MTN*       N/A     75  66  73 CALM        N/A
PIKEVILLE APT* MOSUNNY   84  66  54 CALM      30.13F
BIG SANDY*     PTCLDY    86  70  58 CALM      30.12S HX  90
MOREHEAD APT*    N/A     86  72  62 VRB3      30.12F HX  92
$$

KYZ035-036-041-042-044-050-067-078-099-222000
...CENTRAL KENTUCKY...

CITY           SKY/WX    TMP DP  RH WIND       PRES   REMARKS
MT STERLING*   PTSUNNY   88  72  58 E5        30.11F HX  94
FLEMING/MASON* MOSUNNY   89  72  56 S8        30.10F HX  95
DANVILLE*      CLOUDY    82  73  74 NW3       30.12S
RICHMOND*      SUNNY     90  68  48 SW5       30.10S HX  93
LEXINGTON      MOSUNNY   90  70  51 SW7       30.09F HX  95
FRANKFORT      PTSUNNY   88  69  53 NW5       30.08F HX  92
$$

KYZ091>093-OHZ055-061-077-WVZ005-015-034-035-042-222000
...SOUTHERN OHIO/WEST VIRGINIA...

CITY           SKY/WX    TMP DP  RH WIND       PRES   REMARKS
COVINGTON      MOSUNNY   89  65  44 W9        30.08F HX  91
COLUMBUS       MOSUNNY   91  65  41 SW8       30.07F HX  93
DAYTON         MOSUNNY   88  67  49 W14       30.09S HX  91
WILMINGTON     PTSUNNY   88  68  51 SW10      30.09S HX  91
HUNTINGTON     SUNNY     88  69  53 SW6       30.08F HX  92
CHARLESTON     MOSUNNY   89  69  51 W3        30.09F HX  93
PINEVILLE*     PTSUNNY   89  69  50 MISG      30.18F HX  93
BECKLEY        MOSUNNY   84  62  47 E10       30.19F
BLUEFIELD      MOSUNNY   84  63  49 SE7       30.22F
$$

VAZ002-007-008-TNZ017-027-036-066-071-222000
...SOUTHWEST VIRGINIA/EAST TENNESSEE...

CITY           SKY/WX    TMP DP  RH WIND       PRES   REMARKS
WISE*          MOSUNNY   82  63  51 S6        30.21F
JONESVILLE*    CLEAR     86  66  51 CALM      30.15F
ABINGDON*      MOSUNNY   86  62  45 CALM      30.18S
BRISTOL        MOSUNNY   88  65  46 CALM      30.13F HX  90
KNOXVILLE      MOSUNNY   86  69  56 NW6       30.10F HX  90
OAK RIDGE      MOSUNNY   88  68  51 VRB5      30.12F HX  91
CROSSVILLE     PTSUNNY   81  65  58 S5        30.17F
NASHVILLE      PTSUNNY   88  68  51 SW5       30.10S HX  91
$$

...KEY TO REMARKS...
VSB - VISIBILITY IN MILES
WCI - WIND CHILL INDEX
HX  - HEAT INDEX

$$


USA.gov is the U.S. government's official web portal to all federal, state and local government web resources and services.